Date String (YYYY-MM-DD hh:mm:ss) UTC,Instrument flags,absolute air pressure of the measurement (hPa),sample flow rate (lpm),inlet stack bypass flow (lpm),air temperature of the measurement (°C),ambient temperature measured by the external sensor (°C),aerosol sample conditioner tube jacket temperature (°C),OPC LED temperature (°C),internal box temperature (°C),relative humidity of the measurement (%),span deviation,mass concentration of particles derived from Lorenz-Mie calculation of OPC scattering (μg/m³),mass concentration of particles derived from Lorenz-Mie calculation of OPC scattering (μg/m³),mass concentration of particles derived from Lorenz-Mie calculation of OPC scattering (μg/m³)
DateTimeUTC,F1_M11,P_M11,Q1_M11,Q2_M11,T1_M11,T2_M11,T3_M11,T4_M11,T5_M11,U1_M11,ZSPAN_M11,X0_M11,X2_M11,X1_M11
2023-08-07 07:00:00,SystemResetWarning,0834.9,5.00,000.00,029.9,028.6,000.0,038.5,031.4,29.7,-000.7,0008.14,0005.42,0005.02
2023-08-07 07:01:00,SystemResetWarning,0834.9,5.00,000.00,029.9,028.6,000.0,038.5,031.4,29.7,-000.6,0008.10,0005.41,0005.03
2023-08-07 07:02:00,SystemResetWarning,0834.9,5.01,000.00,029.9,028.6,000.0,038.5,031.4,29.7,-000.2,0008.54,0005.43,0005.04
2023-08-07 07:03:00,SystemResetWarning,0835.3,5.00,000.00,029.9,028.6,000.0,038.5,031.5,29.6,0000.3,0009.08,0005.43,0005.05
2023-08-07 07:04:00,SystemResetWarning,0835.1,5.00,000.00,029.9,028.6,000.0,038.5,031.5,29.6,0000.0,0009.22,0005.35,0004.98
2023-08-07 07:05:00,SystemResetWarning,0834.7,5.00,000.00,029.9,028.7,000.0,038.5,031.5,29.5,-000.4,0009.01,0005.18,0004.86
2023-08-07 07:06:00,SystemResetWarning,0834.9,4.99,000.00,029.9,028.7,000.0,038.6,031.5,29.4,0000.4,0009.07,0005.08,0004.77
2023-08-07 07:07:00,SystemResetWarning,0834.7,5.00,000.00,029.9,028.7,000.0,038.6,031.5,29.4,0000.5,0009.08,0005.00,0004.68
2023-08-07 07:08:00,SystemResetWarning,0835.1,5.00,000.00,029.9,028.7,000.0,038.6,031.5,29.4,0000.6,0008.94,0004.90,0004.60
2023-08-07 07:09:00,SystemResetWarning,0835.1,5.00,000.00,030.0,028.7,000.0,038.6,031.5,29.3,0000.7,0008.89,0004.85,0004.55
2023-08-07 07:10:00,SystemResetWarning,0835.1,5.00,000.00,030.0,028.7,000.0,038.6,031.5,29.2,0001.1,0008.96,0004.86,0004.51
2023-08-07 07:11:00,SystemResetWarning,0835.1,5.01,000.00,030.0,028.7,000.0,038.6,031.5,29.2,0000.9,0009.74,0004.89,0004.48
2023-08-07 07:12:00,SystemResetWarning,0835.1,5.01,000.00,030.0,028.7,000.0,038.6,031.5,29.0,0001.5,0010.36,0004.92,0004.47
2023-08-07 07:13:00,SystemResetWarning,0834.7,5.00,000.00,030.0,028.7,000.0,038.6,031.5,28.8,0000.8,0010.04,0004.90,0004.45
2023-08-07 07:14:00,SystemResetWarning,0834.7,4.99,000.00,030.0,028.7,000.0,038.6,031.5,28.8,-000.6,0009.62,0004.90,0004.44
2023-08-07 07:15:00,SystemResetWarning,0835.2,4.99,000.00,030.0,028.7,000.0,038.6,031.5,28.7,-000.6,0009.19,0004.91,0004.43
2023-08-07 07:16:00,SystemResetWarning,0835.2,5.00,000.00,030.0,028.7,000.0,038.6,031.5,28.8,-000.7,0009.23,0004.92,0004.41
2023-08-07 07:17:00,SystemResetWarning,0834.6,5.01,000.00,030.0,028.7,000.0,038.6,031.5,28.8,-001.1,0009.21,0004.95,0004.41
2023-08-07 07:18:00,SystemResetWarning,0834.7,5.00,000.00,030.0,028.7,000.0,038.7,031.5,28.8,-000.2,0009.13,0004.96,0004.41
2023-08-07 07:19:00,SystemResetWarning,0835.0,5.00,000.00,030.0,028.6,000.0,038.7,031.5,28.7,0000.0,0009.30,0005.01,0004.43
2023-08-07 07:20:00,SystemResetWarning,0834.7,5.00,000.00,030.0,028.6,000.0,038.7,031.5,28.6,0000.0,0009.27,0005.03,0004.43
2023-08-07 07:21:00,SystemResetWarning,0834.5,5.00,000.00,030.0,028.5,000.0,038.7,031.5,28.6,0000.0,0009.29,0005.01,0004.44
2023-08-07 07:22:00,SystemResetWarning,0834.4,5.00,000.00,030.0,028.5,000.0,038.7,031.5,28.5,0000.0,0008.72,0004.96,0004.45
2023-08-07 07:23:00,SystemResetWarning,0834.3,5.00,000.00,030.0,028.5,000.0,038.7,031.4,28.8,0000.0,0008.06,0004.96,0004.46
2023-08-07 07:24:00,SystemResetWarning,0834.3,5.00,000.00,030.0,028.4,000.0,038.7,031.4,28.9,0000.0,0008.20,0005.03,0004.48
2023-08-07 07:25:00,SystemResetWarning,0834.4,5.00,000.00,030.0,028.4,000.0,038.6,031.4,28.7,0000.0,0008.36,0005.04,0004.48
2023-08-07 07:26:00,SystemResetWarning,0834.3,5.00,000.00,030.0,028.4,000.0,038.7,031.4,28.7,0000.0,0008.46,0005.08,0004.50
2023-08-07 07:27:00,SystemResetWarning,0834.3,5.00,000.00,030.0,028.4,000.0,038.6,031.4,28.7,0000.0,0008.59,0005.14,0004.53
2023-08-07 07:28:00,SystemResetWarning,0834.3,5.00,000.00,030.0,028.4,000.0,038.6,031.4,28.8,0000.0,0008.55,0005.14,0004.55
2023-08-07 07:29:00,SystemResetWarning,0834.4,5.00,000.00,030.0,028.4,000.0,038.6,031.4,28.9,0000.0,0008.50,0005.14,0004.57
2023-08-07 07:30:00,SystemResetWarning,0834.4,5.01,000.00,030.0,028.4,000.0,038.6,031.4,29.0,0000.0,0008.49,0005.16,0004.61
2023-08-07 07:31:00,SystemResetWarning,0834.4,5.01,000.00,030.0,028.4,000.0,038.6,031.4,29.1,0000.0,0008.91,0005.22,0004.67
2023-08-07 07:32:00,SystemResetWarning,0834.5,5.00,000.00,030.0,028.4,000.0,038.7,031.4,29.1,0000.0,0008.88,0005.26,0004.70
2023-08-07 07:33:00,SystemResetWarning,0834.5,4.99,000.00,030.0,028.5,000.0,038.7,031.5,29.2,0000.0,0008.80,0005.29,0004.73
2023-08-07 07:34:00,SystemResetWarning,0834.9,4.99,000.00,030.0,028.5,000.0,038.7,031.5,29.3,0000.0,0008.73,0005.30,0004.75
2023-08-07 07:35:00,SystemResetWarning,0834.7,5.00,000.00,030.0,028.5,000.0,038.7,031.5,29.3,0000.1,0008.59,0005.26,0004.74
2023-08-07 07:36:00,SystemResetWarning,0835.0,5.01,000.00,030.0,028.5,000.0,038.7,031.5,29.1,0000.8,0008.61,0005.25,0004.73
2023-08-07 07:37:00,SystemResetWarning,0835.1,5.00,000.00,030.0,028.5,000.0,038.7,031.5,28.9,0000.1,0008.80,0005.24,0004.72
2023-08-07 07:38:00,SystemResetWarning,0835.2,5.00,000.00,030.0,028.5,000.0,038.6,031.5,28.8,0000.2,0008.66,0005.16,0004.68
2023-08-07 07:39:00,SystemResetWarning,0834.9,5.00,000.00,030.0,028.5,000.0,038.6,031.5,28.9,0000.3,0008.56,0005.11,0004.66
2023-08-07 07:40:00,SystemResetWarning,0835.2,5.00,000.00,030.0,028.5,000.0,038.6,031.4,28.8,0000.1,0009.19,0005.08,0004.63
2023-08-07 07:41:00,SystemResetWarning,0834.8,5.00,000.00,030.0,028.5,000.0,038.6,031.4,28.7,0000.0,0009.46,0005.04,0004.58
2023-08-07 07:42:00,SystemResetWarning,0834.7,5.01,000.00,030.0,028.5,000.0,038.6,031.4,28.9,0000.0,0009.01,0004.97,0004.52
2023-08-07 07:43:00,SystemResetWarning,0835.1,5.00,000.00,030.0,028.5,000.0,038.6,031.4,29.1,0000.0,0008.91,0004.92,0004.46
2023-08-07 07:44:00,SystemResetWarning,0835.0,5.00,000.00,030.0,028.5,000.0,038.6,031.4,29.1,0000.0,0008.83,0004.85,0004.40
2023-08-07 07:45:00,SystemResetWarning,0835.1,5.00,000.00,030.0,028.5,000.0,038.6,031.4,29.0,0000.0,0008.73,0004.78,0004.35
2023-08-07 07:46:00,SystemResetWarning,0835.0,5.00,000.00,030.0,028.5,000.0,038.6,031.5,28.9,0000.0,0008.71,0004.77,0004.35
2023-08-07 07:47:00,SystemResetWarning,0835.0,5.00,000.00,030.0,028.5,000.0,038.6,031.5,29.0,0000.0,0008.54,0004.76,0004.38
2023-08-07 07:48:00,SystemResetWarning,0834.8,5.00,000.00,030.0,028.5,000.0,038.6,031.5,29.3,0000.0,0008.17,0004.77,0004.40
2023-08-07 07:49:00,SystemResetWarning,0834.5,5.01,000.00,030.0,028.5,000.0,038.6,031.5,29.5,0000.0,0008.13,0004.78,0004.42
2023-08-07 07:50:00,SystemResetWarning,0834.4,4.99,000.00,030.0,028.5,000.0,038.6,031.5,29.4,-001.6,0008.21,0004.80,0004.44
2023-08-07 07:51:00,SystemResetWarning,0834.4,5.00,000.00,030.0,028.6,000.0,038.7,031.5,29.5,-001.3,0007.50,0004.81,0004.46
2023-08-07 07:52:00,SystemResetWarning,0834.3,5.00,000.00,030.0,028.6,000.0,038.7,031.5,29.5,-001.2,0007.13,0004.83,0004.51
2023-08-07 07:53:00,SystemResetWarning,0834.3,5.00,000.00,030.0,028.6,000.0,038.7,031.5,29.5,-000.3,0007.28,0004.91,0004.59
2023-08-07 07:54:00,SystemResetWarning,0834.4,5.00,000.00,030.0,028.6,000.0,038.7,031.5,29.4,-000.3,0007.44,0005.01,0004.68
2023-08-07 07:55:00,SystemResetWarning,0834.4,5.00,000.00,030.0,028.6,000.0,038.7,031.5,29.3,-000.4,0007.70,0005.17,0004.81
2023-08-07 07:56:00,SystemResetWarning,0834.4,5.00,000.00,030.0,028.6,000.0,038.7,031.5,29.4,-000.2,0007.97,0005.32,0004.93
2023-08-07 07:57:00,SystemResetWarning,0834.5,4.99,000.00,030.0,028.6,000.0,038.7,031.5,29.3,-000.3,0008.15,0005.45,0005.06
2023-08-07 07:58:00,SystemResetWarning,0834.4,5.00,000.00,030.0,028.6,000.0,038.7,031.5,29.2,-000.5,0008.30,0005.55,0005.13
2023-08-07 07:59:00,SystemResetWarning,0834.4,5.00,000.00,030.0,028.6,000.0,038.7,031.5,28.7,-000.3,0008.43,0005.60,0005.16
